TimeMDT,TemperatureF,Dew PointF,Humidity,Sea Level PressureIn,VisibilityMPH,Wind Direction,Wind SpeedMPH,Gust SpeedMPH,PrecipitationIn,Events,Conditions,WindDirDegrees,DateUTC
12:09 AM,33.8,30.2,87,30.06,2.5,NNE,17.3,23.0,0.00,Snow,Light Snow,30,2013-05-01 06:09:00
12:29 AM,33.8,32.0,93,30.08,4.0,NNE,12.7,-,0.00,Snow,Light Snow,30,2013-05-01 06:29:00
12:49 AM,33.8,32.0,93,30.09,1.8,NNE,16.1,-,0.01,Snow,Light Snow,20,2013-05-01 06:49:00
12:53 AM,33.1,32.0,96,30.10,1.2,NNE,13.8,-,0.01,Snow,Light Snow,30,2013-05-01 06:53:00
1:00 AM,33.8,32.0,93,30.09,1.0,NNE,15.0,-,0.00,Snow,Light Snow,30,2013-05-01 07:00:00
1:13 AM,33.8,32.0,93,30.10,1.5,NNE,16.1,-,0.00,Snow,Light Snow,30,2013-05-01 07:13:00
1:27 AM,33.8,32.0,93,30.09,1.2,NNE,13.8,-,0.00,Snow,Light Snow,20,2013-05-01 07:27:00
1:45 AM,33.8,32.0,93,30.09,1.5,NNE,12.7,-,0.00,Snow,Light Snow,30,2013-05-01 07:45:00
1:53 AM,33.1,32.0,96,30.12,1.8,NNE,11.5,-,0.01,Snow,Light Snow,20,2013-05-01 07:53:00
2:05 AM,33.8,32.0,93,30.13,1.2,NNE,9.2,-,0.00,Snow,Light Snow,30,2013-05-01 08:05:00
2:28 AM,33.8,32.0,93,30.13,1.0,NNE,4.6,-,0.00,Snow,Light Snow,30,2013-05-01 08:28:00
2:37 AM,33.8,32.0,93,30.13,0.8,NE,5.8,-,0.00,Snow,Light Snow,50,2013-05-01 08:37:00
2:53 AM,33.1,30.9,92,30.15,0.8,NE,11.5,20.7,0.00,Snow,Light Snow,40,2013-05-01 08:53:00
3:11 AM,33.8,30.2,87,30.15,1.0,NE,15.0,20.7,0.00,Snow,Light Snow,40,2013-05-01 09:11:00
3:18 AM,33.8,30.2,87,30.16,0.8,NE,19.6,26.5,0.00,Snow,Light Snow,40,2013-05-01 09:18:00
3:32 AM,32.0,30.2,93,30.17,1.0,NE,25.3,32.2,0.00,Snow,Light Snow,40,2013-05-01 09:32:00
3:42 AM,32.0,30.2,93,30.17,1.0,NE,20.7,-,0.00,Snow,Light Snow,40,2013-05-01 09:42:00
3:53 AM,30.9,30.0,96,30.20,1.0,NNE,25.3,31.1,0.00,Snow,Light Snow,30,2013-05-01 09:53:00
4:13 AM,30.2,28.4,93,30.18,1.0,NNE,20.7,-,0.00,Snow,Light Snow,30,2013-05-01 10:13:00
4:25 AM,30.2,28.4,93,30.20,1.2,NE,21.9,33.4,0.00,Snow,Light Snow,40,2013-05-01 10:25:00
4:33 AM,30.2,28.4,93,30.20,1.5,NE,20.7,-,0.00,Snow,Light Snow,40,2013-05-01 10:33:00
4:46 AM,30.2,28.4,93,30.22,1.2,NE,19.6,-,0.00,Snow,Light Snow,40,2013-05-01 10:46:00
4:53 AM,30.0,28.0,92,30.25,1.5,NE,23.0,-,0.00,Snow,Light Snow,40,2013-05-01 10:53:00
5:01 AM,28.4,26.6,93,30.22,1.2,NNE,21.9,-,0.00,Snow,Light Snow,30,2013-05-01 11:01:00
5:14 AM,28.4,26.6,93,30.23,1.5,NNE,23.0,-,0.00,Snow,Light Snow,30,2013-05-01 11:14:00
5:21 AM,28.4,26.6,93,30.23,1.5,NNE,25.3,29.9,0.00,Snow,Light Snow,30,2013-05-01 11:21:00
5:53 AM,28.0,26.1,92,30.31,1.8,NNE,16.1,-,0.00,Snow,Light Snow,20,2013-05-01 11:53:00
6:19 AM,28.4,26.6,93,30.27,1.2,NNE,17.3,-,0.00,Snow,Light Snow,30,2013-05-01 12:19:00
6:32 AM,28.4,24.8,86,30.28,1.5,NNE,19.6,-,0.00,Snow,Light Snow,30,2013-05-01 12:32:00
6:44 AM,28.4,24.8,86,30.28,2.5,NNE,17.3,-,0.00,Snow,Light Snow,20,2013-05-01 12:44:00
6:53 AM,28.0,25.0,88,30.35,2.0,NNE,17.3,-,0.00,Snow,Light Snow,20,2013-05-01 12:53:00
7:21 AM,28.4,24.8,86,30.30,1.5,NNE,17.3,-,0.00,Snow,Light Snow,30,2013-05-01 13:21:00
7:24 AM,28.4,24.8,86,30.30,1.2,NNE,18.4,-,0.00,Snow,Light Snow,20,2013-05-01 13:24:00
7:30 AM,28.4,24.8,86,30.31,1.0,NNE,19.6,-,0.00,Snow,Light Snow,30,2013-05-01 13:30:00
7:53 AM,27.0,24.1,89,30.38,1.2,NNE,20.7,-,0.00,Snow,Light Snow,30,2013-05-01 13:53:00
8:02 AM,26.6,24.8,93,30.31,1.0,NNE,21.9,-,0.00,Snow,Light Snow,20,2013-05-01 14:02:00
8:10 AM,26.6,24.8,93,30.31,1.2,NNE,21.9,-,0.00,Snow,Light Snow,20,2013-05-01 14:10:00
8:20 AM,26.6,24.8,93,30.32,1.5,NNE,20.7,-,0.00,Snow,Light Snow,20,2013-05-01 14:20:00
8:35 AM,26.6,24.8,93,30.33,1.2,NNE,17.3,-,0.00,Snow,Light Snow,20,2013-05-01 14:35:00
8:40 AM,26.6,24.8,93,30.33,1.0,NNE,17.3,-,0.00,Snow,Light Snow,20,2013-05-01 14:40:00
8:48 AM,26.6,24.8,93,30.33,1.5,NNE,19.6,26.5,0.00,Snow,Light Snow,30,2013-05-01 14:48:00
8:53 AM,27.0,23.0,85,30.43,2.0,NNE,23.0,-,0.00,Snow,Light Snow,30,2013-05-01 14:53:00
9:05 AM,26.6,23.0,86,30.35,5.0,NNE,18.4,-,0.00,Snow,Light Snow,30,2013-05-01 15:05:00
9:12 AM,26.6,23.0,86,30.35,8.0,NE,18.4,-,0.00,Snow,Light Snow,40,2013-05-01 15:12:00
9:53 AM,28.9,24.1,82,30.45,10.0,NNE,15.0,-,0.00,,Overcast,20,2013-05-01 15:53:00
10:53 AM,30.0,21.9,72,30.46,10.0,NNE,18.4,-,N/A,,Overcast,20,2013-05-01 16:53:00
11:53 AM,30.9,21.9,69,30.46,10.0,NNE,17.3,-,0.05,,Scattered Clouds,20,2013-05-01 17:53:00
12:53 PM,33.1,23.0,66,30.47,10.0,NNE,17.3,-,0.06,,Overcast,20,2013-05-01 18:53:00
1:53 PM,35.1,24.1,64,30.48,10.0,NNE,12.7,-,0.08,,Overcast,20,2013-05-01 19:53:00
2:53 PM,36.0,25.0,64,30.50,10.0,North,11.5,-,0.07,,Overcast,360,2013-05-01 20:53:00
3:53 PM,36.0,24.1,62,30.51,10.0,NNE,12.7,-,0.01,,Overcast,20,2013-05-01 21:53:00
4:53 PM,37.0,25.0,62,30.51,10.0,NNE,10.4,-,N/A,,Overcast,20,2013-05-01 22:53:00
5:53 PM,37.9,25.0,60,30.53,10.0,North,4.6,-,N/A,,Overcast,10,2013-05-01 23:53:00
6:53 PM,37.9,24.1,57,30.56,10.0,Calm,Calm,-,N/A,,Overcast,0,2013-05-02 00:53:00
7:53 PM,34.0,27.0,75,30.59,10.0,West,3.5,-,N/A,,Overcast,260,2013-05-02 01:53:00
8:53 PM,35.1,26.1,70,30.61,10.0,NNW,5.8,-,N/A,,Overcast,330,2013-05-02 02:53:00
9:53 PM,32.0,26.1,79,30.63,10.0,NNW,6.9,-,N/A,,Clear,340,2013-05-02 03:53:00
10:53 PM,30.0,24.1,79,30.64,10.0,NNW,6.9,-,N/A,,Clear,340,2013-05-02 04:53:00
11:53 PM,24.1,21.9,91,30.67,10.0,West,6.9,-,N/A,,Partly Cloudy,270,2013-05-02 05:53:00